Year,Month,Day,Hour,Minute,Value (Times are PST for temperature in C)
2008,06,15,00,00,11.70
2008,06,15,00,01,11.70
2008,06,15,00,02,11.80
2008,06,15,00,03,11.80
2008,06,15,00,04,11.90
2008,06,15,00,05,11.90
2008,06,15,00,06,12.00
2008,06,15,00,07,12.00
2008,06,15,00,08,12.10
2008,06,15,00,09,12.10
2008,06,15,00,10,12.20
2008,06,15,00,11,12.20
2008,06,15,00,12,12.20
2008,06,15,00,13,12.20
2008,06,15,00,14,12.20
2008,06,15,00,15,12.10
2008,06,15,00,16,12.10
2008,06,15,00,17,12.10
2008,06,15,00,18,12.00
2008,06,15,00,19,11.90
2008,06,15,00,20,11.90
2008,06,15,00,21,11.80
2008,06,15,00,22,11.80
2008,06,15,00,23,11.80
2008,06,15,00,24,11.70
2008,06,15,00,25,11.60
2008,06,15,00,26,11.50
2008,06,15,00,27,11.40
2008,06,15,00,28,11.30
2008,06,15,00,29,11.30
2008,06,15,00,30,11.30
2008,06,15,00,31,11.40
2008,06,15,00,32,11.50
2008,06,15,00,33,11.50
2008,06,15,00,34,11.60
2008,06,15,00,35,11.70
2008,06,15,00,36,11.80
2008,06,15,00,37,11.80
2008,06,15,00,38,11.80
2008,06,15,00,39,11.80
2008,06,15,00,40,11.80
2008,06,15,00,41,11.80
2008,06,15,00,42,11.90
2008,06,15,00,43,11.90
2008,06,15,00,44,11.90
2008,06,15,00,45,11.90
2008,06,15,00,46,12.00
2008,06,15,00,47,12.00
2008,06,15,00,48,12.10
2008,06,15,00,49,12.10
2008,06,15,00,50,12.20
2008,06,15,00,51,12.20
2008,06,15,00,52,12.20
2008,06,15,00,53,12.20
2008,06,15,00,54,12.20
2008,06,15,00,55,12.20
2008,06,15,00,56,12.20
2008,06,15,00,57,12.30
2008,06,15,00,58,12.30
2008,06,15,00,59,12.30
2008,06,15,01,00,12.30
2008,06,15,01,01,12.20
2008,06,15,01,02,12.20
2008,06,15,01,03,12.20
2008,06,15,01,04,12.10
2008,06,15,01,05,12.00
2008,06,15,01,06,12.00
2008,06,15,01,07,11.90
2008,06,15,01,08,11.90
2008,06,15,01,09,11.80
2008,06,15,01,10,11.80
2008,06,15,01,11,11.80
2008,06,15,01,12,11.70
2008,06,15,01,13,11.60
2008,06,15,01,14,11.60
2008,06,15,01,15,11.50
2008,06,15,01,16,11.40
2008,06,15,01,17,11.30
2008,06,15,01,18,11.30
2008,06,15,01,19,11.30
2008,06,15,01,20,11.30
2008,06,15,01,21,11.30
2008,06,15,01,22,11.20
2008,06,15,01,23,11.20
2008,06,15,01,24,11.20
2008,06,15,01,25,11.20
2008,06,15,01,26,11.20
2008,06,15,01,27,11.10
2008,06,15,01,28,11.10
2008,06,15,01,29,11.10
2008,06,15,01,30,11.10
2008,06,15,01,31,11.10
2008,06,15,01,32,11.10
2008,06,15,01,33,11.00
2008,06,15,01,34,11.00
2008,06,15,01,35,11.00
2008,06,15,01,36,10.90
2008,06,15,01,37,10.90
2008,06,15,01,38,10.90
2008,06,15,01,39,10.90
2008,06,15,01,40,10.90
2008,06,15,01,41,10.90
2008,06,15,01,42,10.90
2008,06,15,01,43,10.90
2008,06,15,01,44,10.90
2008,06,15,01,45,10.90
2008,06,15,01,46,10.90
2008,06,15,01,47,10.90
2008,06,15,01,48,10.90
2008,06,15,01,49,10.90
2008,06,15,01,50,10.80
2008,06,15,01,51,10.90
2008,06,15,01,52,10.90
2008,06,15,01,53,10.80
2008,06,15,01,54,10.90
2008,06,15,01,55,10.80
2008,06,15,01,56,10.80
2008,06,15,01,57,10.70
2008,06,15,01,58,10.70
2008,06,15,01,59,10.60
2008,06,15,02,00,10.60
2008,06,15,02,01,10.50
2008,06,15,02,02,10.40
2008,06,15,02,03,10.40
2008,06,15,02,04,10.30
2008,06,15,02,05,10.20
2008,06,15,02,06,10.10
2008,06,15,02,07,10.00
2008,06,15,02,08,9.90
2008,06,15,02,09,9.80
2008,06,15,02,10,9.70
2008,06,15,02,11,9.70
2008,06,15,02,12,9.50
2008,06,15,02,13,9.50
2008,06,15,02,14,9.50
2008,06,15,02,15,9.50
2008,06,15,02,16,9.40
2008,06,15,02,17,9.40
2008,06,15,02,18,9.30
2008,06,15,02,19,9.30
2008,06,15,02,20,9.30
2008,06,15,02,21,9.30
2008,06,15,02,22,9.30
2008,06,15,02,23,9.20
2008,06,15,02,24,9.00
2008,06,15,02,25,9.00
2008,06,15,02,26,8.90
2008,06,15,02,27,9.00
2008,06,15,02,28,9.00
2008,06,15,02,29,9.00
2008,06,15,02,30,9.00
2008,06,15,02,31,9.00
2008,06,15,02,32,9.10
2008,06,15,02,33,9.20
2008,06,15,02,34,9.20
2008,06,15,02,35,9.30
2008,06,15,02,36,9.40
2008,06,15,02,37,9.40
2008,06,15,02,38,9.50
2008,06,15,02,39,9.50
2008,06,15,02,40,9.50
2008,06,15,02,41,9.40
2008,06,15,02,42,9.30
2008,06,15,02,43,9.20
2008,06,15,02,44,9.20
2008,06,15,02,45,9.10
2008,06,15,02,46,9.00
2008,06,15,02,47,8.90
2008,06,15,02,48,8.80
2008,06,15,02,49,8.80
2008,06,15,02,50,8.70
2008,06,15,02,51,8.70
2008,06,15,02,52,8.70
2008,06,15,02,53,8.60
2008,06,15,02,54,8.60
2008,06,15,02,55,8.70
2008,06,15,02,56,8.60
2008,06,15,02,57,8.60
2008,06,15,02,58,8.50
2008,06,15,02,59,8.30
2008,06,15,03,00,8.20
2008,06,15,03,01,8.10
2008,06,15,03,02,8.10
2008,06,15,03,03,8.10
2008,06,15,03,04,8.00
2008,06,15,03,05,8.20
2008,06,15,03,06,8.30
2008,06,15,03,07,8.40
2008,06,15,03,08,8.60
2008,06,15,03,09,8.60
2008,06,15,03,10,8.80
2008,06,15,03,11,9.00
2008,06,15,03,12,9.00
2008,06,15,03,13,9.10
2008,06,15,03,14,9.10
2008,06,15,03,15,9.10
2008,06,15,03,16,9.00
2008,06,15,03,17,8.90
2008,06,15,03,18,8.70
2008,06,15,03,19,8.60
2008,06,15,03,20,8.40
2008,06,15,03,21,8.40
2008,06,15,03,22,8.30
2008,06,15,03,23,8.20
2008,06,15,03,24,8.10
2008,06,15,03,25,8.00
2008,06,15,03,26,7.90
2008,06,15,03,27,7.80
2008,06,15,03,28,7.80
2008,06,15,03,29,7.80
2008,06,15,03,30,7.80
2008,06,15,03,31,7.90
2008,06,15,03,32,7.90
2008,06,15,03,33,8.00
2008,06,15,03,34,8.00
2008,06,15,03,35,7.90
2008,06,15,03,36,7.90
2008,06,15,03,37,7.80
2008,06,15,03,38,7.80
2008,06,15,03,39,7.70
2008,06,15,03,40,7.70
2008,06,15,03,41,7.60
2008,06,15,03,42,7.60
2008,06,15,03,43,7.50
2008,06,15,03,44,7.40
2008,06,15,03,45,7.30
2008,06,15,03,46,7.30
2008,06,15,03,47,7.20
2008,06,15,03,48,7.30
2008,06,15,03,49,7.30
2008,06,15,03,50,7.30
2008,06,15,03,51,7.30
2008,06,15,03,52,7.30
2008,06,15,03,53,7.30
2008,06,15,03,54,7.20
2008,06,15,03,55,7.20
2008,06,15,03,56,7.20
2008,06,15,03,57,7.20
2008,06,15,03,58,7.20
2008,06,15,03,59,7.20
2008,06,15,04,00,7.10
2008,06,15,04,01,7.10
2008,06,15,04,02,7.10
2008,06,15,04,03,7.10
2008,06,15,04,04,7.10
2008,06,15,04,05,7.10
2008,06,15,04,06,7.10
2008,06,15,04,07,7.20
2008,06,15,04,08,7.20
2008,06,15,04,09,7.40
2008,06,15,04,10,7.40
2008,06,15,04,11,7.40
2008,06,15,04,12,7.30
2008,06,15,04,13,7.30
2008,06,15,04,14,7.30
2008,06,15,04,15,7.30
2008,06,15,04,16,7.40
2008,06,15,04,17,7.50
2008,06,15,04,18,7.60
2008,06,15,04,19,7.60
2008,06,15,04,20,7.60
2008,06,15,04,21,7.70
2008,06,15,04,22,7.70
2008,06,15,04,23,7.70
2008,06,15,04,24,7.70
2008,06,15,04,25,7.70
2008,06,15,04,26,7.70
2008,06,15,04,27,7.60
2008,06,15,04,28,7.60
2008,06,15,04,29,7.70
2008,06,15,04,30,7.80
2008,06,15,04,31,7.90
2008,06,15,04,32,7.90
2008,06,15,04,33,7.90
2008,06,15,04,34,7.80
2008,06,15,04,35,7.80
2008,06,15,04,36,7.80
2008,06,15,04,37,7.80
2008,06,15,04,38,7.80
2008,06,15,04,39,7.70
2008,06,15,04,40,7.70
2008,06,15,04,41,7.80
2008,06,15,04,42,7.80
2008,06,15,04,43,7.80
2008,06,15,04,44,7.80
2008,06,15,04,45,7.70
2008,06,15,04,46,7.70
2008,06,15,04,47,7.60
2008,06,15,04,48,7.60
2008,06,15,04,49,7.60
2008,06,15,04,50,7.50
2008,06,15,04,51,7.60
2008,06,15,04,52,7.50
2008,06,15,04,53,7.60
2008,06,15,04,54,7.60
2008,06,15,04,55,7.60
2008,06,15,04,56,7.60
2008,06,15,04,57,7.60
2008,06,15,04,58,7.60
2008,06,15,04,59,7.60
2008,06,15,05,00,7.60
2008,06,15,05,01,7.60
2008,06,15,05,02,7.60
2008,06,15,05,03,7.60
2008,06,15,05,04,7.60
2008,06,15,05,05,7.50
2008,06,15,05,06,7.50
2008,06,15,05,07,7.40
2008,06,15,05,08,7.30
2008,06,15,05,09,7.20
2008,06,15,05,10,7.20
2008,06,15,05,11,7.20
2008,06,15,05,12,7.20
2008,06,15,05,13,7.20
2008,06,15,05,14,7.20
2008,06,15,05,15,7.10
2008,06,15,05,16,7.10
2008,06,15,05,17,7.10
2008,06,15,05,18,7.10
2008,06,15,05,19,7.10
2008,06,15,05,20,7.10
2008,06,15,05,21,7.10
2008,06,15,05,22,7.10
2008,06,15,05,23,7.10
2008,06,15,05,24,7.10
2008,06,15,05,25,7.10
2008,06,15,05,26,7.00
2008,06,15,05,27,6.90
2008,06,15,05,28,6.80
2008,06,15,05,29,6.80
2008,06,15,05,30,6.80
2008,06,15,05,31,6.90
2008,06,15,05,32,6.90
2008,06,15,05,33,7.00
2008,06,15,05,34,7.00
2008,06,15,05,35,6.90
2008,06,15,05,36,6.90
2008,06,15,05,37,6.90
2008,06,15,05,38,7.00
2008,06,15,05,39,7.00
2008,06,15,05,40,7.00
2008,06,15,05,41,7.00
2008,06,15,05,42,7.00
2008,06,15,05,43,7.10
2008,06,15,05,44,7.00
2008,06,15,05,45,7.00
2008,06,15,05,46,7.00
2008,06,15,05,47,7.10
2008,06,15,05,48,7.20
2008,06,15,05,49,7.20
2008,06,15,05,50,7.20
2008,06,15,05,51,7.20
2008,06,15,05,52,7.20
2008,06,15,05,53,7.30
2008,06,15,05,54,7.40
2008,06,15,05,55,7.40
2008,06,15,05,56,7.40
2008,06,15,05,57,7.40
2008,06,15,05,58,7.50
2008,06,15,05,59,7.70
2008,06,15,06,00,7.70
2008,06,15,06,01,7.80
2008,06,15,06,02,7.90
2008,06,15,06,03,8.00
2008,06,15,06,04,8.10
2008,06,15,06,05,8.10
2008,06,15,06,06,8.20
2008,06,15,06,07,8.20
2008,06,15,06,08,8.20
2008,06,15,06,09,8.20
2008,06,15,06,10,8.20
2008,06,15,06,11,8.20
2008,06,15,06,12,8.30
2008,06,15,06,13,8.30
2008,06,15,06,14,8.30
2008,06,15,06,15,8.30
2008,06,15,06,16,8.30
2008,06,15,06,17,8.40
2008,06,15,06,18,8.50
2008,06,15,06,19,8.50
2008,06,15,06,20,8.50
2008,06,15,06,21,8.50
2008,06,15,06,22,8.50
2008,06,15,06,23,8.60
2008,06,15,06,24,8.70
2008,06,15,06,25,8.70
2008,06,15,06,26,8.70
2008,06,15,06,27,8.70
2008,06,15,06,28,8.70
2008,06,15,06,29,8.70
2008,06,15,06,30,8.70
2008,06,15,06,31,8.70
2008,06,15,06,32,9.00
2008,06,15,06,33,9.00
2008,06,15,06,34,9.10
2008,06,15,06,35,9.10
2008,06,15,06,36,9.20
2008,06,15,06,37,9.30
2008,06,15,06,38,9.50
2008,06,15,06,39,9.50
2008,06,15,06,40,9.70
2008,06,15,06,41,9.80
2008,06,15,06,42,9.90
2008,06,15,06,43,9.90
2008,06,15,06,44,10.00
2008,06,15,06,45,10.10
2008,06,15,06,46,10.20
2008,06,15,06,47,10.30
2008,06,15,06,48,10.40
2008,06,15,06,49,10.40
2008,06,15,06,50,10.50
2008,06,15,06,51,10.60
2008,06,15,06,52,10.70
2008,06,15,06,53,10.70
2008,06,15,06,54,10.80
2008,06,15,06,55,10.80
2008,06,15,06,56,10.80
2008,06,15,06,57,10.90
2008,06,15,06,58,10.90
2008,06,15,06,59,11.00
2008,06,15,07,00,11.00
2008,06,15,07,01,11.10
2008,06,15,07,02,11.10
2008,06,15,07,03,11.20
2008,06,15,07,04,11.20
2008,06,15,07,05,11.20
2008,06,15,07,06,11.20
2008,06,15,07,07,11.30
2008,06,15,07,08,11.30
2008,06,15,07,09,11.30
2008,06,15,07,10,11.30
2008,06,15,07,11,11.30
2008,06,15,07,12,11.30
2008,06,15,07,13,11.40
2008,06,15,07,14,11.40
2008,06,15,07,15,11.40
2008,06,15,07,16,11.40
2008,06,15,07,17,11.40
2008,06,15,07,18,11.40
2008,06,15,07,19,11.40
2008,06,15,07,20,11.40
2008,06,15,07,21,11.50
2008,06,15,07,22,11.50
2008,06,15,07,23,11.60
2008,06,15,07,24,11.60
2008,06,15,07,25,11.60
2008,06,15,07,26,11.60
2008,06,15,07,27,11.60
2008,06,15,07,28,11.60
2008,06,15,07,29,11.60
2008,06,15,07,30,11.60
2008,06,15,07,31,11.70
2008,06,15,07,32,11.70
2008,06,15,07,33,11.70
2008,06,15,07,34,11.60
2008,06,15,07,35,11.60
2008,06,15,07,36,11.60
2008,06,15,07,37,11.60
2008,06,15,07,38,11.60
2008,06,15,07,39,11.60
2008,06,15,07,40,11.70
2008,06,15,07,41,11.70
2008,06,15,07,42,11.80
2008,06,15,07,43,11.90
2008,06,15,07,44,11.90
2008,06,15,07,45,11.90
2008,06,15,07,46,11.90
2008,06,15,07,47,12.00
2008,06,15,07,48,12.00
2008,06,15,07,49,12.00
2008,06,15,07,50,12.10
2008,06,15,07,51,12.00
2008,06,15,07,52,12.00
2008,06,15,07,53,12.00
2008,06,15,07,54,11.90
2008,06,15,07,55,11.90
2008,06,15,07,56,11.90
2008,06,15,07,57,11.90
2008,06,15,07,58,11.90
2008,06,15,07,59,11.90
2008,06,15,08,00,11.80
2008,06,15,08,01,11.80
2008,06,15,08,02,11.90
2008,06,15,08,03,11.90
2008,06,15,08,04,11.90
2008,06,15,08,05,11.90
2008,06,15,08,06,12.00
2008,06,15,08,07,12.00
2008,06,15,08,08,12.00
2008,06,15,08,09,12.00
2008,06,15,08,10,11.90
2008,06,15,08,11,11.90
2008,06,15,08,12,12.00
2008,06,15,08,13,12.00
2008,06,15,08,14,12.00
2008,06,15,08,15,12.00
2008,06,15,08,16,11.90
2008,06,15,08,17,12.00
2008,06,15,08,18,12.10
2008,06,15,08,19,12.10
2008,06,15,08,20,12.20
2008,06,15,08,21,12.10
2008,06,15,08,22,12.10
2008,06,15,08,23,12.00
2008,06,15,08,24,11.90
2008,06,15,08,25,11.90
2008,06,15,08,26,11.90
2008,06,15,08,27,12.00
2008,06,15,08,28,12.00
2008,06,15,08,29,12.20
2008,06,15,08,30,12.20
2008,06,15,08,31,12.20
2008,06,15,08,32,12.20
2008,06,15,08,33,12.20
2008,06,15,08,34,12.20
2008,06,15,08,35,12.20
2008,06,15,08,36,12.30
2008,06,15,08,37,12.30
2008,06,15,08,38,12.30
2008,06,15,08,39,12.30
2008,06,15,08,40,12.30
2008,06,15,08,41,12.20
2008,06,15,08,42,12.10
2008,06,15,08,43,12.00
2008,06,15,08,44,11.90
2008,06,15,08,45,11.90
2008,06,15,08,46,11.90
2008,06,15,08,47,11.90
2008,06,15,08,48,11.90
2008,06,15,08,49,12.00
2008,06,15,08,50,12.00
2008,06,15,08,51,12.20
2008,06,15,08,52,12.20
2008,06,15,08,53,12.30
2008,06,15,08,54,12.30
2008,06,15,08,55,12.40
2008,06,15,08,56,12.40
2008,06,15,08,57,12.40
2008,06,15,08,58,12.40
2008,06,15,08,59,12.40
2008,06,15,09,00,12.40
2008,06,15,09,01,12.50
2008,06,15,09,02,12.40
2008,06,15,09,03,12.40
2008,06,15,09,04,12.40
2008,06,15,09,05,12.40
2008,06,15,09,06,12.40
2008,06,15,09,07,12.40
2008,06,15,09,08,12.30
2008,06,15,09,09,12.30
2008,06,15,09,10,12.30
2008,06,15,09,11,12.40
2008,06,15,09,12,12.50
2008,06,15,09,13,12.50
2008,06,15,09,14,12.60
2008,06,15,09,15,12.60
2008,06,15,09,16,12.50
2008,06,15,09,17,12.40
2008,06,15,09,18,12.30
2008,06,15,09,19,12.30
2008,06,15,09,20,12.30
2008,06,15,09,21,12.30
2008,06,15,09,22,12.40
2008,06,15,09,23,12.50
2008,06,15,09,24,12.60
2008,06,15,09,25,12.60
2008,06,15,09,26,12.50
2008,06,15,09,27,12.40
2008,06,15,09,28,12.40
2008,06,15,09,29,12.40
2008,06,15,09,30,12.60
2008,06,15,09,31,12.70
2008,06,15,09,32,12.70
2008,06,15,09,33,12.70
2008,06,15,09,34,12.70
2008,06,15,09,35,12.80
2008,06,15,09,36,12.90
2008,06,15,09,37,12.90
2008,06,15,09,38,12.80
2008,06,15,09,39,12.70
2008,06,15,09,40,12.70
2008,06,15,09,41,12.70
2008,06,15,09,42,12.70
2008,06,15,09,43,12.70
2008,06,15,09,44,12.70
2008,06,15,09,45,12.70
2008,06,15,09,46,12.70
2008,06,15,09,47,12.70
2008,06,15,09,48,12.70
2008,06,15,09,49,12.70
2008,06,15,09,50,12.70
2008,06,15,09,51,12.70
2008,06,15,09,52,12.80
2008,06,15,09,53,12.90
2008,06,15,09,54,12.90
2008,06,15,09,55,13.00
2008,06,15,09,56,13.10
2008,06,15,09,57,13.10
2008,06,15,09,58,13.00
2008,06,15,09,59,13.00
2008,06,15,10,00,12.90
2008,06,15,10,01,13.00
2008,06,15,10,02,13.00
2008,06,15,10,03,13.00
2008,06,15,10,04,12.90
2008,06,15,10,05,12.80
2008,06,15,10,06,12.80
2008,06,15,10,07,12.80
2008,06,15,10,08,12.80
2008,06,15,10,09,12.90
2008,06,15,10,10,13.00
2008,06,15,10,11,12.90
2008,06,15,10,12,12.80
2008,06,15,10,13,12.80
2008,06,15,10,14,12.70
2008,06,15,10,15,12.70
2008,06,15,10,16,12.80
2008,06,15,10,17,12.80
2008,06,15,10,18,12.80
2008,06,15,10,19,12.90
2008,06,15,10,20,12.90
2008,06,15,10,21,12.90
2008,06,15,10,22,12.90
2008,06,15,10,23,12.80
2008,06,15,10,24,12.80
2008,06,15,10,25,12.80
2008,06,15,10,26,12.70
2008,06,15,10,27,12.60
2008,06,15,10,28,12.60
2008,06,15,10,29,12.70
2008,06,15,10,30,12.70
2008,06,15,10,31,12.70
2008,06,15,10,32,12.70
2008,06,15,10,33,12.70
2008,06,15,10,34,12.70
2008,06,15,10,35,12.60
2008,06,15,10,36,12.50
2008,06,15,10,37,12.50
2008,06,15,10,38,12.50
2008,06,15,10,39,12.50
2008,06,15,10,40,12.40
2008,06,15,10,41,12.40
2008,06,15,10,42,12.40
2008,06,15,10,43,12.30
2008,06,15,10,44,12.30
2008,06,15,10,45,12.30
2008,06,15,10,46,12.40
2008,06,15,10,47,12.50
2008,06,15,10,48,12.60
2008,06,15,10,49,12.60
2008,06,15,10,50,12.60
2008,06,15,10,51,12.60
2008,06,15,10,52,12.60
2008,06,15,10,53,12.60
2008,06,15,10,54,12.50
2008,06,15,10,55,12.50
2008,06,15,10,56,12.60
2008,06,15,10,57,12.60
2008,06,15,10,58,12.60
2008,06,15,10,59,12.60
2008,06,15,11,00,12.70
2008,06,15,11,01,12.70
2008,06,15,11,02,12.70
2008,06,15,11,03,12.80
2008,06,15,11,04,12.80
2008,06,15,11,05,12.80
2008,06,15,11,06,12.80
2008,06,15,11,07,12.70
2008,06,15,11,08,12.60
2008,06,15,11,09,12.40
2008,06,15,11,10,12.30
2008,06,15,11,11,12.30
2008,06,15,11,12,12.40
2008,06,15,11,13,12.50
2008,06,15,11,14,12.60
2008,06,15,11,15,12.60
2008,06,15,11,16,12.70
2008,06,15,11,17,12.80
2008,06,15,11,18,12.80
2008,06,15,11,19,12.80
2008,06,15,11,20,12.70
2008,06,15,11,21,12.70
2008,06,15,11,22,12.70
2008,06,15,11,23,12.80
2008,06,15,11,24,12.80
2008,06,15,11,25,12.80
2008,06,15,11,26,12.80
2008,06,15,11,27,12.80
2008,06,15,11,28,12.80
2008,06,15,11,29,12.80
2008,06,15,11,30,12.80
2008,06,15,11,31,12.90
2008,06,15,11,32,12.90
2008,06,15,11,33,12.80
2008,06,15,11,34,12.80
2008,06,15,11,35,12.90
2008,06,15,11,36,12.80
2008,06,15,11,37,12.90
2008,06,15,11,38,12.90
2008,06,15,11,39,12.90
2008,06,15,11,40,12.90
2008,06,15,11,41,13.00
2008,06,15,11,42,13.00
2008,06,15,11,43,13.10
2008,06,15,11,44,13.00
2008,06,15,11,45,13.10
2008,06,15,11,46,13.10
2008,06,15,11,47,13.00
2008,06,15,11,48,13.00
2008,06,15,11,49,13.10
2008,06,15,11,50,13.10
2008,06,15,11,51,13.10
2008,06,15,11,52,13.10
2008,06,15,11,53,13.10
2008,06,15,11,54,13.10
2008,06,15,11,55,13.10
2008,06,15,11,56,13.20
2008,06,15,11,57,13.30
2008,06,15,11,58,13.30
2008,06,15,11,59,13.30
2008,06,15,12,00,13.40
2008,06,15,12,01,13.40
2008,06,15,12,02,13.30
2008,06,15,12,03,13.20
2008,06,15,12,04,13.20
2008,06,15,12,05,13.20
2008,06,15,12,06,13.30
2008,06,15,12,07,13.40
2008,06,15,12,08,13.40
2008,06,15,12,09,13.50
2008,06,15,12,10,13.50
2008,06,15,12,11,13.60
2008,06,15,12,12,13.70
2008,06,15,12,13,13.70
2008,06,15,12,14,13.80
2008,06,15,12,15,13.80
2008,06,15,12,16,13.80
2008,06,15,12,17,13.80
2008,06,15,12,18,13.80
2008,06,15,12,19,13.80
2008,06,15,12,20,13.90
2008,06,15,12,21,13.90
2008,06,15,12,22,13.90
2008,06,15,12,23,13.90
2008,06,15,12,24,13.90
2008,06,15,12,25,13.90
2008,06,15,12,26,13.90
2008,06,15,12,27,13.90
2008,06,15,12,28,13.90
2008,06,15,12,29,14.00
2008,06,15,12,30,14.00
2008,06,15,12,31,14.00
2008,06,15,12,32,14.00
2008,06,15,12,33,14.10
2008,06,15,12,34,14.20
2008,06,15,12,35,14.20
2008,06,15,12,36,14.30
2008,06,15,12,37,14.30
2008,06,15,12,38,14.20
2008,06,15,12,39,14.20
2008,06,15,12,40,14.20
2008,06,15,12,41,14.20
2008,06,15,12,42,14.20
2008,06,15,12,43,14.20
2008,06,15,12,44,14.10
2008,06,15,12,45,14.00
2008,06,15,12,46,14.00
2008,06,15,12,47,13.90
2008,06,15,12,48,13.80
2008,06,15,12,49,13.80
2008,06,15,12,50,13.90
2008,06,15,12,51,14.00
2008,06,15,12,52,14.10
2008,06,15,12,53,14.10
2008,06,15,12,54,14.10
2008,06,15,12,55,14.10
2008,06,15,12,56,14.20
2008,06,15,12,57,14.20
2008,06,15,12,58,14.30
2008,06,15,12,59,14.30
2008,06,15,13,00,14.30
2008,06,15,13,01,14.30
2008,06,15,13,02,14.30
2008,06,15,13,03,14.30
2008,06,15,13,04,14.30
2008,06,15,13,05,14.30
2008,06,15,13,06,14.40
2008,06,15,13,07,14.40
2008,06,15,13,08,14.40
2008,06,15,13,09,14.40
2008,06,15,13,10,14.40
2008,06,15,13,11,14.40
2008,06,15,13,12,14.40
2008,06,15,13,13,14.50
2008,06,15,13,14,14.50
2008,06,15,13,15,14.40
2008,06,15,13,16,14.50
2008,06,15,13,17,14.40
2008,06,15,13,18,14.40
2008,06,15,13,19,14.40
2008,06,15,13,20,14.40
2008,06,15,13,21,14.40
2008,06,15,13,22,14.50
2008,06,15,13,23,14.50
2008,06,15,13,24,14.60
2008,06,15,13,25,14.60
2008,06,15,13,26,14.60
2008,06,15,13,27,14.60
2008,06,15,13,28,14.70
2008,06,15,13,29,14.70
2008,06,15,13,30,14.60
2008,06,15,13,31,14.70
2008,06,15,13,32,14.70
2008,06,15,13,33,14.70
2008,06,15,13,34,14.60
2008,06,15,13,35,14.60
2008,06,15,13,36,14.60
2008,06,15,13,37,14.60
2008,06,15,13,38,14.60
2008,06,15,13,39,14.60
2008,06,15,13,40,14.60
2008,06,15,13,41,14.70
2008,06,15,13,42,14.80
2008,06,15,13,43,14.90
2008,06,15,13,44,15.00
2008,06,15,13,45,15.00
2008,06,15,13,46,15.00
2008,06,15,13,47,15.00
2008,06,15,13,48,14.90
2008,06,15,13,49,14.90
2008,06,15,13,50,14.90
2008,06,15,13,51,14.90
2008,06,15,13,52,14.90
2008,06,15,13,53,15.00
2008,06,15,13,54,15.00
2008,06,15,13,55,15.00
2008,06,15,13,56,15.00
2008,06,15,13,57,15.00
2008,06,15,13,58,15.00
2008,06,15,13,59,15.00
2008,06,15,14,00,14.90
2008,06,15,14,01,14.80
2008,06,15,14,02,14.80
2008,06,15,14,03,14.70
2008,06,15,14,04,14.80
2008,06,15,14,05,15.00
2008,06,15,14,06,15.00
2008,06,15,14,07,15.10
2008,06,15,14,08,15.20
2008,06,15,14,09,15.30
2008,06,15,14,10,15.40
2008,06,15,14,11,15.50
2008,06,15,14,12,15.60
2008,06,15,14,13,15.40
2008,06,15,14,14,15.40
2008,06,15,14,15,15.40
2008,06,15,14,16,15.40
2008,06,15,14,17,15.50
2008,06,15,14,18,15.60
2008,06,15,14,19,15.60
2008,06,15,14,20,15.70
2008,06,15,14,21,15.60
2008,06,15,14,22,15.60
2008,06,15,14,23,15.60
2008,06,15,14,24,15.50
2008,06,15,14,25,15.50
2008,06,15,14,26,15.40
2008,06,15,14,27,15.50
2008,06,15,14,28,15.50
2008,06,15,14,29,15.60
2008,06,15,14,30,15.60
2008,06,15,14,31,15.70
2008,06,15,14,32,15.70
2008,06,15,14,33,15.70
2008,06,15,14,34,15.70
2008,06,15,14,35,15.70
2008,06,15,14,36,15.70
2008,06,15,14,37,15.70
2008,06,15,14,38,15.70
2008,06,15,14,39,15.80
2008,06,15,14,40,15.90
2008,06,15,14,41,15.90
2008,06,15,14,42,15.80
2008,06,15,14,43,15.80
2008,06,15,14,44,15.70
2008,06,15,14,45,15.70
2008,06,15,14,46,15.70
2008,06,15,14,47,15.70
2008,06,15,14,48,15.80
2008,06,15,14,49,15.80
2008,06,15,14,50,15.70
2008,06,15,14,51,15.60
2008,06,15,14,52,15.60
2008,06,15,14,53,15.50
2008,06,15,14,54,15.50
2008,06,15,14,55,15.50
2008,06,15,14,56,15.60
2008,06,15,14,57,15.60
2008,06,15,14,58,15.60
2008,06,15,14,59,15.70
2008,06,15,15,00,15.70
2008,06,15,15,01,15.80
2008,06,15,15,02,15.80
2008,06,15,15,03,15.80
2008,06,15,15,04,15.80
2008,06,15,15,05,15.80
2008,06,15,15,06,15.80
2008,06,15,15,07,15.90
2008,06,15,15,08,15.90
2008,06,15,15,09,15.90
2008,06,15,15,10,15.90
2008,06,15,15,11,15.90
2008,06,15,15,12,16.00
2008,06,15,15,13,16.00
2008,06,15,15,14,16.00
2008,06,15,15,15,16.10
2008,06,15,15,16,16.10
2008,06,15,15,17,16.10
2008,06,15,15,18,16.10
2008,06,15,15,19,16.20
2008,06,15,15,20,16.20
2008,06,15,15,21,16.20
2008,06,15,15,22,16.20
2008,06,15,15,23,16.20
2008,06,15,15,24,16.20
2008,06,15,15,25,16.10
2008,06,15,15,26,16.20
2008,06,15,15,27,16.20
2008,06,15,15,28,16.30
2008,06,15,15,29,16.50
2008,06,15,15,30,16.60
2008,06,15,15,31,16.70
2008,06,15,15,32,16.70
2008,06,15,15,33,16.70
2008,06,15,15,34,16.70
2008,06,15,15,35,16.70
2008,06,15,15,36,16.70
2008,06,15,15,37,16.70
2008,06,15,15,38,16.70
2008,06,15,15,39,16.70
2008,06,15,15,40,16.80
2008,06,15,15,41,16.80
2008,06,15,15,42,16.80
2008,06,15,15,43,16.90
2008,06,15,15,44,16.90
2008,06,15,15,45,17.00
2008,06,15,15,46,16.90
2008,06,15,15,47,16.90
2008,06,15,15,48,16.80
2008,06,15,15,49,16.80
2008,06,15,15,50,16.70
2008,06,15,15,51,16.80
2008,06,15,15,52,16.90
2008,06,15,15,53,17.00
2008,06,15,15,54,17.00
2008,06,15,15,55,17.10
2008,06,15,15,56,17.00
2008,06,15,15,57,16.90
2008,06,15,15,58,16.90
2008,06,15,15,59,16.80
2008,06,15,16,00,16.80
2008,06,15,16,01,16.80
2008,06,15,16,02,16.80
2008,06,15,16,03,16.80
2008,06,15,16,04,16.80
2008,06,15,16,05,16.80
2008,06,15,16,06,16.80
2008,06,15,16,07,16.90
2008,06,15,16,08,17.00
2008,06,15,16,09,17.10
2008,06,15,16,10,17.10
2008,06,15,16,11,17.20
2008,06,15,16,12,17.20
2008,06,15,16,13,17.30
2008,06,15,16,14,17.30
2008,06,15,16,15,17.30
2008,06,15,16,16,17.30
2008,06,15,16,17,17.40
2008,06,15,16,18,17.30
2008,06,15,16,19,17.40
2008,06,15,16,20,17.40
2008,06,15,16,21,17.40
2008,06,15,16,22,17.40
2008,06,15,16,23,17.30
2008,06,15,16,24,17.30
2008,06,15,16,25,17.20
2008,06,15,16,26,17.10
2008,06,15,16,27,17.10
2008,06,15,16,28,17.10
2008,06,15,16,29,17.00
2008,06,15,16,30,17.00
2008,06,15,16,31,16.90
2008,06,15,16,32,16.90
2008,06,15,16,33,17.00
2008,06,15,16,34,17.10
2008,06,15,16,35,17.10
2008,06,15,16,36,17.20
2008,06,15,16,37,17.30
2008,06,15,16,38,17.30
2008,06,15,16,39,17.40
2008,06,15,16,40,17.40
2008,06,15,16,41,17.30
2008,06,15,16,42,17.30
2008,06,15,16,43,17.30
2008,06,15,16,44,17.30
2008,06,15,16,45,17.30
2008,06,15,16,46,17.30
2008,06,15,16,47,17.30
2008,06,15,16,48,17.30
2008,06,15,16,49,17.40
2008,06,15,16,50,17.40
2008,06,15,16,51,17.50
2008,06,15,16,52,17.50
2008,06,15,16,53,17.60
2008,06,15,16,54,17.70
2008,06,15,16,55,17.70
2008,06,15,16,56,17.70
2008,06,15,16,57,17.80
2008,06,15,16,58,17.80
2008,06,15,16,59,17.80
2008,06,15,17,00,17.90
2008,06,15,17,01,17.90
2008,06,15,17,02,18.00
2008,06,15,17,03,18.00
2008,06,15,17,04,18.20
2008,06,15,17,05,18.30
2008,06,15,17,06,18.30
2008,06,15,17,07,18.40
2008,06,15,17,08,18.40
2008,06,15,17,09,18.40
2008,06,15,17,10,18.40
2008,06,15,17,11,18.40
2008,06,15,17,12,18.40
2008,06,15,17,13,18.40
2008,06,15,17,14,18.40
2008,06,15,17,15,18.40
2008,06,15,17,16,18.40
2008,06,15,17,17,18.40
2008,06,15,17,18,18.50
2008,06,15,17,19,18.50
2008,06,15,17,20,18.60
2008,06,15,17,21,18.60
2008,06,15,17,22,18.60
2008,06,15,17,23,18.60
2008,06,15,17,24,18.60
2008,06,15,17,25,18.60
2008,06,15,17,26,18.60
2008,06,15,17,27,18.50
2008,06,15,17,28,18.40
2008,06,15,17,29,18.30
2008,06,15,17,30,18.10
2008,06,15,17,31,17.90